Orbital Elements at Epoch 2459000.5 (2020-May-31.0) TDB
Reference: JPL 21 (heliocentric ecliptic J2000)
Element | Value | Uncertainty (1-sigma) | Units |
e | .1516867563439344 | 7.4366e-08 | |
a | 2.712884001621089 | 1.6673e-08 | au |
q | 2.301375427077834 | 1.9997e-07 | au |
i | 17.45284417347527 | 7.4595e-06 | deg |
node | 21.95887738004258 | 1.4323e-05 | deg |
peri | 6.229388988055496 | 2.0065e-05 | deg |
M | 225.7999035383613 | 1.6401e-05 | deg |
tp | 2459608.908945328352 (2022-Jan-29.40894533) | 7.6761e-05 | TDB |
period | 1632.094358298885 4.47 | 1.5046e-05 4.119e-08 | d yr |
n | .220575482152407 | 2.0334e-09 | deg/d |
Q | 3.124392576164345 | 1.9202e-08 | au |
|
| | Orbit Determination Parameters
Additional Information
|